Location: Newark
(35.8833°N, 14.5000°E)
Time: 02:33:47
(UTC+00:00)

Altair - Pass Details

Date: 29 November 2019
Orbit: 1502 x 1682 km, 47.2° (Epoch: 12 December)

Event Time Altitude Azimuth Distance (km) Brightness Sun altitude
Rises 08:12:12 0° 287° (WNW) 4,663 9.6 21.6°
Reaches altitude 10° 08:17:18 10° 264° (W) 3,705 9.3 22.2°
Maximum altitude 08:21:24 14° 237° (WSW) 3,440 9.4 22.7°
Drops below altitude 10° 08:25:34 10° 210° (SSW) 3,756 9.9 23.2°
Sets 08:30:52 0° 187° (S) 4,778 10.8 23.9°
